233  
AXUS43 KLBF 200610  
MISLBF  
 
WESTERN AND NORTH CENTRAL NEBRASKA HOURLY WEATHER ROUNDUP  
NATIONAL WEATHER SERVICE NORTH PLATTE NE  
100 AM CDT WED OCT 20 2021  
 
NOTE: "FAIR" INDICATES FEW OR NO CLOUDS BELOW 12,000 FEET WITH NO  
SIGNIFICANT WEATHER AND/OR OBSTRUCTIONS TO VISIBILITY.  
 
NOTE: STATIONS NOT REPORTING SKY/WEATHER AND PRESSURE ARE  
PROVIDED BY RAWS AND APRS NETWORKS AND ARE NOT UNDER NATIONAL  
WEATHER SERVICE QUALITY CONTROL.  
   
..OBSERVATIONS IN AND NEAR THE EASTERN PANHANDLE OF NEBRASKA
 
 
 
CITY SKY/WX TMP DP RH WIND PRES REMARKS  
PINE RIDGE RAIN 35 33 92 NW7 30.11R FOG  
GORDON CLOUDY 36 34 93 N14 30.08R  
CHADRON CLOUDY 35 32 88 N9 30.13S  
ALLIANCE CLOUDY 34 33 96 N13 30.10R  
SIDNEY CLOUDY 36 34 92 NW17 30.09R  
CRESCENT LAKE N/A 35 34 96 N13G21 N/A  

 
   
..OBSERVATIONS IN NORTHERN NEBRASKA AND FAR SOUTHERN SOUTH DAKOTA
 
 
 
CITY SKY/WX TMP DP RH WIND PRES REMARKS  
WINNER CLOUDY 43 40 89 N21G28 30.00F  
VALENTINE CLOUDY 43 39 86 N12 30.02S  
AINSWORTH CLOUDY 42 40 95 N16G22 29.99S FOG  
O'NEILL LGT RAIN 47 45 94 N17 29.95R  
THEDFORD CLOUDY 42 40 93 N14 30.01R  
BROKEN BOW CLOUDY 48 45 89 N16G25 29.92R  
ORD CLOUDY 50 47 89 N13 29.88F  
ALBION CLOUDY 52 51 98 NW13 29.88R  
EWING N/A 48 46 92 N6G15 N/A  
CHAMBERS N/A 47 45 93 NW3G13 N/A  
BUTTE N/A 44 42 94 N18 N/A  
VALENTINE NWR N/A 41 40 98 N14G24 N/A  
HALSEY N/A 42 41 97 NW9G20 N/A  

 
   
..OBSERVATIONS IN SOUTHWEST NEBRASKA AND FAR NORTHEAST COLORADO
 
 
 
CITY SKY/WX TMP DP RH WIND PRES REMARKS  
WRAY CLOUDY 41 36 81 N15G24 30.10R  
HOLYOKE CLOUDY 43 37 81 NW13G22 30.09R  
IMPERIAL PTCLDY 42 37 82 NW17G25 30.04S  
OGALLALA CLOUDY 44 38 81 NW17G23 30.06R  
NORTH PLATTE CLOUDY 48 42 80 N10G21 30.00R  
MCCOOK MOCLDY 49 43 80 NW17 29.98R  
LEXINGTON CLOUDY 50 46 87 NW21G26 29.93R  
CALLAWAY N/A 47 45 92 SW16 N/A  
STAPLETON N/A 43 41 92 N5G15 N/A  

 
   
..OBSERVATIONS IN CENTRAL LINCOLN COUNTY AREA
 
 
 
CITY SKY/WX TMP DP RH WIND PRES REMARKS  
N.P. AIRPORT CLOUDY 48 42 80 N10G21 30.00R  
N.P. HILLCREST N/A 46 43 88 NW13G20 N/A  
N.P. DOWNTOWN N/A 46 43 88 NW3 N/A  
N.P. SOUTHEAST N/A 46 42 86 N6G13 N/A  

 
   
..OBSERVATIONS ACROSS THE ROCKIES AND WESTERN HIGH PLAINS
 
 
 
CITY SKY/WX TMP DP RH WIND PRES REMARKS  
SCOTTSBLUFF FLURRIES 36 32 85 NW9 30.14S  
KIMBALL CLOUDY 34 33 95 NW12G18 30.12R  
CHEYENNE LGT SNOW 32 31 96 N6 30.12S FOG  
DENVER PTCLDY 32 30 92 E9 30.13R  
STEAMBOAT CLOUDY 34 34 100 CALM 30.24R  
COPPER MTN CLOUDY 23 19 86 W6 30.28R WCI 16  
LEADVILLE PTCLDY 26 17 68 NW9 30.24R WCI 17  
ASPEN PTCLDY 26 22 84 S5 30.25R  
GUNNISON CLEAR 26 21 81 N5 30.27R  
TELLURIDE CLEAR 32 23 69 SE7 30.30R  
LARAMIE FLURRIES 31 30 96 NW12 30.13S  
CASPER LGT SNOW 32 31 96 W6 30.21R FOG  
SHERIDAN CLOUDY 37 33 85 N6 30.25F  
JACKSON PTCLDY 34 27 75 E5 30.18R  
YELLOWSTONE N/A 26 24 92 CALM 30.21S  

 
   
..OBSERVATIONS ACROSS THE NORTHERN PLAINS
 
 
 
CITY SKY/WX TMP DP RH WIND PRES REMARKS  
RAPID CITY LGT SNOW 34 33 96 N14 30.14R FOG  
PIERRE CLOUDY 42 38 85 N14 30.07R  
SIOUX FALLS MOCLDY 49 45 86 NE8 29.92S  
ABERDEEN CLOUDY 44 40 85 N21G29 30.06S  
WILLISTON FAIR 27 27 100 N3 30.31S  
DICKINSON CLOUDY 36 30 79 NE12 30.22S  
BISMARCK CLOUDY 40 32 73 N13 30.22F  
FARGO CLOUDY 46 39 76 N15G25 30.11R  
GRAND FORKS CLOUDY 42 32 67 N17 30.18R  

 
   
..OBSERVATIONS ACROSS THE CENTRAL AND SOUTHERN PLAINS
 
 
 
CITY SKY/WX TMP DP RH WIND PRES REMARKS  
GRAND ISLAND PTCLDY 61 54 77 CALM 29.84S  
LINCOLN CLEAR 63 54 72 SE10 29.85F  
OMAHA PTCLDY 66 54 65 S14 29.88S  
DES MOINES MOCLDY 60 48 64 E5 29.95R  
KANSAS CITY MOCLDY 67 47 48 S18G30 29.95S  
WICHITA CLEAR 65 53 65 S23G31 29.91S  
DODGE CITY CLEAR 50 42 74 NW12 29.97R  
OKLAHOMA CITY PTCLDY 62 53 72 S12 29.98S  
DALLAS MOCLDY 68 59 73 S12 30.04R  
AMARILLO CLEAR 62 31 31 NW10 30.01R  

 
 
 
CLICK HERE TO GO TO PREVIOUS BULLETINS.

The Nexlab NE Page Main Text Page